Houston Clover, TX

11:59 AM CST on November 21, 2017 (GMT -0600)
Clover

Weather History for KLVJ - August, 2013

Change the Weather History Date:

Friday, August 2, 2013

  Actual Average (KEFD) Record (KEFD)
Temperature  
Mean Temperature 84 °F -  
Max Temperature 93 °F 92 °F 100 °F (1998)
Min Temperature 75 °F 73 °F 73 °F (2000)
Cooling Degree Days 19    
Growing Degree Days 34 (Base 50)    
Moisture  
Dew Point 73 °F    
Average Humidity 70    
Maximum Humidity 91    
Minimum Humidity 47    
Precipitation  
Precipitation 0.00 in - - ()
Sea Level Pressure  
Sea Level Pressure 29.98 in    
Wind  
Wind Speed 3 mph (SSW)    
Max Wind Speed 14 mph    
Max Gust Speed -    
Visibility 10 miles    
Events      
Averages and records for this station are not official NWS values.
T = Trace of Precipitation, MM = Missing Value Source: NWS Daily Summary

Daily Weather History Graph

Daily Weather History Graph

Search for Another Location

Airport or City:

Trip Planner

Search our weather history database for the weather conditions in past years. The results will help you decide how hot, cold, wet, or windy it might be!

Date:

Astronomy

Aug. 02, 2013 Rise Set
Actual Time 6:41 AM CDT 8:12 PM CDT
Civil Twilight 6:15 AM CDT 8:38 PM CDT
Nautical Twilight 5:45 AM CDT 9:08 PM CDT
Astronomical Twilight 5:12 AM CDT 9:40 PM CDT
Moon 3:06 AM CDT (8/2) 5:07 PM CDT (8/2)
Length of Visible Light 14h 22m
Length of Day
13h 30m
Waning Crescent, 15% of the Moon is Illuminated
Aug 2
Waning Crescent
Aug 6
New
Aug 14
First Quarter
Aug 20
Full
Aug 28
Last Quarter

Hourly Weather History & Observations

Time (CDT) Temp. Heat Index Dew Point Humidity Pressure Visibility Wind Dir Wind Speed Gust Speed Precip Events Conditions
12:53 AM 80.1 °F 84.5 °F 73.9 °F 81% 29.97 in 10.0 mi Calm Calm - N/A   Clear
1:53 AM 79.0 °F - 73.9 °F 84% 29.95 in 10.0 mi Calm Calm - N/A   Clear
2:53 AM 78.1 °F - 73.9 °F 87% 29.95 in 9.0 mi Calm Calm - N/A   Clear
3:53 AM 78.1 °F - 73.9 °F 87% 29.96 in 9.0 mi Calm Calm - N/A   Clear
4:53 AM 77.0 °F - 73.0 °F 88% 29.95 in 8.0 mi Calm Calm - N/A   Clear
5:53 AM 75.9 °F - 73.0 °F 91% 29.97 in 8.0 mi Calm Calm - N/A   Clear
6:53 AM 75.9 °F - 72.0 °F 87% 29.99 in 7.0 mi Calm Calm - N/A   Clear
7:53 AM 79.0 °F - 75.0 °F 88% 30.00 in 8.0 mi Calm Calm - N/A   Clear
8:53 AM 82.0 °F 88.6 °F 75.0 °F 79% 30.01 in 10.0 mi SW 4.6 mph - N/A   Clear
9:41 AM 84.2 °F 92.3 °F 75.2 °F 74% 30.01 in 10.0 mi West 6.9 mph - N/A   Mostly Cloudy
9:53 AM 84.0 °F 91.2 °F 73.9 °F 72% 30.01 in 10.0 mi SW 5.8 mph - N/A   Scattered Clouds
10:04 AM 84.2 °F 90.9 °F 73.4 °F 70% 30.01 in 10.0 mi West 5.8 mph - N/A   Mostly Cloudy
10:12 AM 84.2 °F 90.9 °F 73.4 °F 70% 30.01 in 10.0 mi WSW 5.8 mph - N/A   Partly Cloudy
10:53 AM 86.0 °F 93.0 °F 73.0 °F 65% 30.01 in 10.0 mi West 5.8 mph - N/A   Clear
11:17 AM 87.8 °F 93.8 °F 71.6 °F 58% 30.01 in 10.0 mi West 8.1 mph - N/A   Mostly Cloudy
11:33 AM 87.8 °F 93.8 °F 71.6 °F 58% 30.01 in 10.0 mi Calm Calm - N/A   Scattered Clouds
11:53 AM 87.1 °F 93.6 °F 72.0 °F 61% 30.00 in 10.0 mi Variable 4.6 mph - N/A   Partly Cloudy
12:53 PM 89.1 °F 94.1 °F 70.0 °F 53% 30.00 in 10.0 mi SW 3.5 mph - N/A   Clear
1:53 PM 91.0 °F 95.2 °F 68.0 °F 47% 29.98 in 10.0 mi Variable 3.5 mph - N/A   Clear
2:53 PM 91.9 °F 96.9 °F 69.1 °F 47% 29.96 in 10.0 mi Calm Calm - N/A   Clear
3:53 PM 93.0 °F 99.0 °F 70.0 °F 47% 29.94 in 10.0 mi South 4.6 mph - N/A   Clear
4:53 PM 93.0 °F 103.2 °F 73.9 °F 54% 29.93 in 10.0 mi South 10.4 mph - N/A   Partly Cloudy
5:53 PM 91.9 °F 101.3 °F 73.9 °F 55% 29.93 in 10.0 mi SSE 13.8 mph - N/A   Clear
6:53 PM 89.1 °F 98.0 °F 73.9 °F 61% 29.95 in 10.0 mi SSE 10.4 mph - N/A   Clear
7:53 PM 86.0 °F 93.0 °F 73.0 °F 65% 29.96 in 10.0 mi SSE 8.1 mph - N/A   Clear
8:53 PM 84.0 °F 91.2 °F 73.9 °F 72% 29.97 in 10.0 mi SSE 4.6 mph - N/A   Clear
9:53 PM 82.9 °F 90.2 °F 75.0 °F 77% 29.99 in 10.0 mi SSE 4.6 mph - N/A   Clear
10:53 PM 81.0 °F 86.2 °F 73.9 °F 79% 30.00 in 10.0 mi SSE 3.5 mph - N/A   Clear
11:53 PM 81.0 °F 86.2 °F 73.9 °F 79% 30.00 in 10.0 mi Calm Calm - N/A   Clear